Preview of NWS' New Version of Forecast
This preview is not operational and should not be used for support decisions.

Regional Weather Roundup (RWR)

Issued by National Weather Service (NWS)

                            
000
ASPQ40 PGUM 200410
RWRPQ 
WEATHER ROUNDUP FOR THE MARIANAS AND MICRONESIA
NATIONAL WEATHER SERVICE TIYAN GU
200 PM CHST TUE AUG 20 2019

GUZ001>004-200500-
MARIANA ISLANDS-
  
CITY           SKY/WX    TMP DP  RH WIND       PRES   REMARKS
GUAM AIRPORT   MOSUNNY   88  75  66 S12       29.80F HX  97           
ANDERSEN AFB   PTSUNNY   86  73  66 S14       29.81F HX  93           
ROTA AIRPORT   MOSUNNY   82  75  78 S15       29.78F                  
TINIAN AP      MOSUNNY   91  77  62 SW9       29.77F HX 105           
SAIPAN AP      SUNNY     88  75  66 S10       29.79F HX  97           

$$

PMZ161-200500-
REPUBLIC OF PALAU-
  
CITY           SKY/WX    TMP DP  RH WIND       PRES   REMARKS
KOROR AP       PTSUNNY   86  75  70 SW14G26   29.75F HX  95           
KOROR WSO      NOT AVBL                                               

$$

PMZ171>174-200500-
FEDERATED STATES OF MICRONESIA-
  
CITY           SKY/WX    TMP DP  RH WIND       PRES   REMARKS
YAP AIRPORT    LGT RAIN  82  77  83 VRB5      29.75F HX  91           
CHUUK AP       CLOUDY    88  81  79 NW8       29.75F HX 105           
POHNPEI AP     PTSUNNY   90  81  74 NW10      29.71F HX 108           
POHNPEI WSO    PTSUNNY   90  79  70 NW3       29.74F HX 105           
KOSRAE AP      NOT AVBL                                               

$$

PMZ181-200500-
REPUBLIC OF THE MARSHALL ISLANDS-
  
CITY           SKY/WX    TMP DP  RH WIND       PRES   REMARKS
KWAJALEIN AP   SUNNY     88  77  70 SE6       29.73S HX 100           
MAJURO AP      NOT AVBL                                               
MAJURO WSO     PTSUNNY   84  77  79 SW6       29.72S HX  94           

$$